West Memphis, AR

5:34 PM CDT on May 28, 2017 (GMT -0500)
West Memphis Municipal

Weather History for KAWM - September, 2012

Change the Weather History Date:

Friday, September 7, 2012

  Actual Average Record
Temperature  
Mean Temperature 82 °F -  
Max Temperature 96 °F 88 °F 98 °F (1980)
Min Temperature 69 °F 66 °F 48 °F (1988)
Cooling Degree Days 18    
Growing Degree Days 32 (Base 50)    
Moisture  
Dew Point 71 °F    
Average Humidity 76    
Maximum Humidity 100    
Minimum Humidity 44    
Precipitation  
Precipitation 1.32 in - - ()
Sea Level Pressure  
Sea Level Pressure 29.85 in    
Wind  
Wind Speed 8 mph (SSW)    
Max Wind Speed 18 mph    
Max Gust Speed 37 mph    
Visibility 8 miles    
Events Rain , Thunderstorm    
Averages and records for this station are not official NWS values.
T = Trace of Precipitation, MM = Missing Value Source: NWS Daily Summary

Daily Weather History Graph

Daily Weather History Graph

Search for Another Location

Airport or City:

Trip Planner

Search our weather history database for the weather conditions in past years. The results will help you decide how hot, cold, wet, or windy it might be!

Date:

Astronomy

Sep. 07, 2012 Rise Set
Actual Time 6:38 AM CDT 7:18 PM CDT
Civil Twilight 6:12 AM CDT 7:44 PM CDT
Nautical Twilight 5:42 AM CDT 8:14 PM CDT
Astronomical Twilight 5:11 AM CDT 8:45 PM CDT
Moon 11:30 PM CDT (9/7) 1:14 PM CDT (9/7)
Length of Visible Light 13h 31m
Length of Day
12h 40m
Waning Gibbous, 58% of the Moon is Illuminated
Sep 7
Waning Gibbous
Sep 8
Last Quarter
Sep 15
New
Sep 22
First Quarter
Sep 29
Full

Hourly Weather History & Observations

Time (CDT) Temp. Heat Index Dew Point Humidity Pressure Visibility Wind Dir Wind Speed Gust Speed Precip Events Conditions
12:06 AM 75.2 °F - 69.8 °F 83% 29.96 in 10.0 mi SW 8.1 mph - N/A Thunderstorm Thunderstorm
12:21 AM 73.4 °F - 68.0 °F 83% 29.95 in 10.0 mi SSW 8.1 mph 17.3 mph N/A   Mostly Cloudy
12:53 AM 73.0 °F - 68.0 °F 84% 29.93 in 10.0 mi South 11.5 mph - N/A   Clear
1:53 AM 73.9 °F - 68.0 °F 82% 29.89 in 10.0 mi WSW 5.8 mph - N/A   Clear
2:53 AM 73.0 °F - 68.0 °F 84% 29.90 in 10.0 mi North 3.5 mph - N/A   Clear
3:53 AM 71.1 °F - 68.0 °F 90% 29.87 in 10.0 mi Calm Calm - N/A   Clear
4:53 AM 71.1 °F - 68.0 °F 90% 29.87 in 10.0 mi SE 6.9 mph - N/A   Clear
5:53 AM 72.0 °F - 69.1 °F 91% 29.87 in 10.0 mi SSE 10.4 mph - N/A   Clear
6:53 AM 72.0 °F - 69.1 °F 91% 29.89 in 10.0 mi SSE 3.5 mph - N/A   Clear
7:53 AM 75.0 °F - 69.1 °F 82% 29.90 in 10.0 mi SE 6.9 mph - N/A   Clear
8:53 AM 79.0 °F - 69.1 °F 72% 29.90 in 10.0 mi SSE 9.2 mph - N/A   Clear
9:53 AM 82.9 °F 88.0 °F 72.0 °F 69% 29.91 in 10.0 mi South 11.5 mph - N/A   Clear
10:53 AM 87.1 °F 96.3 °F 75.0 °F 67% 29.90 in 10.0 mi South 11.5 mph 17.3 mph N/A   Clear
11:53 AM 90.0 °F 100.2 °F 75.0 °F 61% 29.88 in 10.0 mi South 13.8 mph - N/A   Clear
12:53 PM 91.9 °F 103.9 °F 75.9 °F 59% 29.86 in 10.0 mi South 11.5 mph - N/A   Clear
1:53 PM 93.0 °F 104.6 °F 75.0 °F 56% 29.83 in 10.0 mi SSW 6.9 mph 18.4 mph N/A   Scattered Clouds
2:53 PM 93.9 °F 104.0 °F 73.9 °F 52% 29.80 in 10.0 mi SSW 8.1 mph - N/A   Scattered Clouds
3:53 PM 96.1 °F 103.5 °F 71.1 °F 44% 29.77 in 10.0 mi SW 9.2 mph - N/A   Partly Cloudy
4:53 PM 95.0 °F 101.3 °F 70.0 °F 44% 29.73 in 10.0 mi SSW 10.4 mph 18.4 mph N/A   Clear
5:53 PM 93.9 °F 100.3 °F 70.0 °F 46% 29.70 in 10.0 mi SSW 10.4 mph 17.3 mph N/A   Clear
6:53 PM 90.0 °F 96.9 °F 72.0 °F 55% 29.72 in 10.0 mi SSW 5.8 mph - N/A   Partly Cloudy
7:53 PM 87.1 °F 93.6 °F 72.0 °F 61% 29.72 in 10.0 mi South 6.9 mph - N/A   Scattered Clouds
8:53 PM 87.1 °F 92.8 °F 71.1 °F 59% 29.75 in 10.0 mi South 5.8 mph - N/A   Mostly Cloudy
9:42 PM 73.4 °F - 69.8 °F 88% 29.86 in 3.0 mi NNW 13.8 mph 36.8 mph 0.16 in Rain , Thunderstorm Heavy Thunderstorms and Rain
9:45 PM 71.6 °F - 69.8 °F 94% 29.85 in 1.8 mi NNW 18.4 mph 32.2 mph 0.32 in Rain , Thunderstorm Heavy Thunderstorms and Rain
9:53 PM 72.0 °F - 71.1 °F 97% 29.85 in 1.2 mi North 15.0 mph 29.9 mph 0.53 in Rain , Thunderstorm Heavy Thunderstorms and Rain
10:00 PM 71.6 °F - 71.6 °F 100% 29.88 in 3.0 mi NNW 9.2 mph 23.0 mph 0.07 in Rain , Thunderstorm Thunderstorms and Rain
10:03 PM 71.6 °F - 71.6 °F 100% 29.89 in 2.5 mi North 10.4 mph - 0.15 in Rain , Thunderstorm Heavy Thunderstorms and Rain
10:16 PM 71.6 °F - 71.6 °F 100% 29.88 in 1.8 mi North 10.4 mph 18.4 mph 0.46 in Rain , Thunderstorm Heavy Thunderstorms and Rain
10:22 PM 69.8 °F - 69.8 °F 100% 29.86 in 2.0 mi North 10.4 mph - 0.50 in Rain , Thunderstorm Thunderstorms and Rain
10:31 PM 69.8 °F - - N/A% 29.85 in 4.0 mi NNE 10.4 mph - 0.58 in Rain , Thunderstorm Thunderstorms and Rain
10:53 PM 71.1 °F - - N/A% 29.86 in 5.0 mi Calm Calm - 0.65 in Rain , Thunderstorm Thunderstorms and Rain
11:53 PM 71.1 °F - - N/A% 29.85 in 9.0 mi Calm Calm - 0.14 in Rain , Thunderstorm Light Rain